QPF
0.00 0.00 0.00 0.00 0.00 0.00 0.00 0.01 0.01 0.00 0.00 0.00 0.01 0.02 0.04 0.04 0.02 0.03 0.04 0.04 0.03 0.03 0.03 0.03 0.02 0.03 0.07 0.11 0.09 0.09 0.06 0.04 0.04 0.03 0.02 0.03 0.03 0.03 0.02 0.02 0.02 0.02 0.01 0.02
0.00 0.00 0.00 0.01 0.00 0.00 0.00 0.00 0.00 0.00 0.00 0.00 0.02 0.02 0.04 0.05 0.02 0.02 0.03 0.04 0.06 0.06 0.03 0.02 0.02 0.02 0.03 0.06 0.10 0.11 0.07 0.04 0.03 0.03 0.02 0.02 0.03 0.03 0.03 0.03 0.03 0.03 0.02 0.02
0.00 0.00 0.01 0.01 0.01 0.00 0.00 0.00 0.00 0.00 0.00 0.00 0.01 0.02 0.04 0.05 0.02 0.02 0.03 0.06 0.08 0.07 0.04 0.02 0.02 0.02 0.02 0.02 0.02 0.03 0.03 0.03 0.03 0.02 0.02 0.02 0.02 0.03 0.05 0.05 0.04 0.04 0.04 0.04
0.00 0.00 0.00 0.00 0.00 0.00 0.00 0.00 0.00 0.00 0.00 0.01 0.01 0.03 0.04 0.04 0.03 0.03 0.04 0.06 0.09 0.06 0.04 0.03 0.02 0.01 0.01 0.01 0.01 0.02 0.02 0.02 0.02 0.02 0.02 0.02 0.02 0.02 0.04 0.05 0.04 0.04 0.06 0.07
0.00 0.00 0.00 0.00 0.00 0.00 0.00 0.00 0.00 0.00 0.00 0.00 0.01 0.03 0.05 0.06 0.04 0.04 0.05 0.09 0.09 0.05 0.04 0.03 0.02 0.02 0.02 0.02 0.01 0.01 0.02 0.02 0.02 0.02 0.02 0.02 0.02 0.02 0.03 0.04 0.04 0.04 0.05 0.07
0.00 0.00 0.00 0.00 0.00 0.00 0.00 0.00 0.00 0.00 0.00 0.00 0.01 0.02 0.05 0.06 0.06 0.05 0.06 0.06 0.04 0.03 0.03 0.02 0.03 0.03 0.02 0.01 0.01 0.02 0.02 0.02 0.02 0.02 0.02 0.03 0.03 0.03 0.03 0.04 0.05 0.05 0.06 0.09
0.00 0.00 0.00 0.00 0.00 0.00 0.00 0.00 0.00 0.01 0.01 0.01 0.01 0.01 0.03 0.05 0.05 0.05 0.06 0.07 0.07 0.04 0.03 0.02 0.03 0.02 0.02 0.02 0.01 0.02 0.03 0.03 0.03 0.03 0.03 0.03 0.04 0.04 0.03 0.04 0.05 0.06 0.07 0.08
0.00 0.00 0.00 0.01 0.01 0.00 0.00 0.01 0.01 0.01 0.00 0.01 0.01 0.02 0.04 0.04 0.04 0.03 0.05 0.05 0.04 0.04 0.03 0.04 0.04 0.04 0.03 0.02 0.02 0.02 0.02 0.02 0.03 0.03 0.04 0.05 0.05 0.05 0.05 0.04 0.04 0.06 0.07 0.09
0.01 0.01 0.01 0.01 0.01 0.00 0.00 0.00 0.00 0.00 0.00 0.01 0.01 0.03 0.04 0.05 0.04 0.03 0.03 0.02 0.03 0.03 0.04 0.05 0.05 0.04 0.03 0.02 0.02 0.01 0.01 0.02 0.03 0.05 0.06 0.06 0.06 0.06 0.07 0.06 0.06 0.06 0.08 0.08
0.03 0.02 0.01 0.01 0.00 0.00 0.00 0.00 0.00 0.01 0.01 0.01 0.03 0.04 0.04 0.05 0.05 0.05 0.05 0.04 0.03 0.04 0.05 0.05 0.04 0.03 0.03 0.03 0.02 0.01 0.01 0.01 0.02 0.03 0.03 0.04 0.03 0.04 0.05 0.05 0.05 0.06 0.06 0.04
0.01 0.01 0.01 0.01 0.01 0.01 0.00 0.00 0.00 0.01 0.01 0.02 0.04 0.07 0.04 0.03 0.04 0.06 0.05 0.04 0.04 0.06 0.07 0.06 0.05 0.05 0.05 0.03 0.02 0.02 0.02 0.02 0.02 0.02 0.02 0.02 0.02 0.02 0.04 0.04 0.04 0.04 0.03 0.03
0.00 0.01 0.00 0.00 0.01 0.01 0.01 0.01 0.01 0.01 0.01 0.03 0.03 0.06 0.04 0.03 0.03 0.03 0.03 0.04 0.06 0.07 0.09 0.08 0.07 0.06 0.04 0.03 0.04 0.05 0.04 0.03 0.05 0.07 0.06 0.03 0.02 0.02 0.03 0.04 0.05 0.04 0.03 0.03
0.00 0.01 0.01 0.01 0.01 0.01 0.01 0.01 0.01 0.01 0.01 0.02 0.02 0.03 0.02 0.03 0.03 0.03 0.02 0.05 0.07 0.08 0.08 0.08 0.07 0.05 0.03 0.02 0.03 0.04 0.04 0.03 0.03 0.05 0.06 0.06 0.03 0.02 0.03 0.04 0.05 0.05 0.03 0.02
0.02 0.02 0.01 0.01 0.01 0.01 0.01 0.01 0.01 0.00 0.01 0.02 0.02 0.02 0.02 0.02 0.01 0.02 0.02 0.03 0.08 0.08 0.11 0.08 0.06 0.04 0.03 0.03 0.02 0.03 0.03 0.03 0.03 0.03 0.03 0.05 0.06 0.04 0.03 0.04 0.05 0.05 0.03 0.03
0.01 0.01 0.01 0.01 0.01 0.01 0.01 0.01 0.01 0.01 0.01 0.03 0.03 0.02 0.02 0.02 0.01 0.01 0.01 0.01 0.05 0.09 0.08 0.06 0.06 0.06 0.06 0.05 0.04 0.03 0.03 0.02 0.01 0.01 0.01 0.01 0.02 0.03 0.04 0.05 0.05 0.04 0.03 0.03
0.01 0.00 0.01 0.02 0.01 0.01 0.01 0.01 0.02 0.02 0.02 0.02 0.03 0.02 0.01 0.01 0.01 0.01 0.01 0.01 0.02 0.05 0.06 0.06 0.06 0.08 0.09 0.07 0.06 0.04 0.03 0.03 0.02 0.01 0.01 0.01 0.02 0.03 0.03 0.04 0.05 0.04 0.03 0.03
0.01 0.01 0.01 0.02 0.01 0.01 0.01 0.01 0.02 0.04 0.03 0.02 0.03 0.02 0.02 0.01 0.01 0.01 0.01 0.01 0.01 0.03 0.05 0.06 0.08 0.08 0.08 0.08 0.06 0.03 0.02 0.02 0.03 0.03 0.03 0.02 0.02 0.03 0.04 0.05 0.05 0.05 0.03 0.03
0.01 0.01 0.01 0.01 0.02 0.02 0.01 0.02 0.02 0.03 0.02 0.02 0.02 0.01 0.01 0.01 0.01 0.02 0.01 0.01 0.01 0.01 0.03 0.05 0.05 0.05 0.05 0.05 0.04 0.02 0.02 0.02 0.02 0.03 0.06 0.04 0.03 0.04 0.04 0.05 0.06 0.04 0.03 0.03
0.01 0.03 0.03 0.02 0.03 0.03 0.02 0.02 0.02 0.02 0.02 0.01 0.02 0.01 0.01 0.01 0.02 0.02 0.01 0.01 0.01 0.02 0.02 0.03 0.03 0.03 0.04 0.03 0.01 0.01 0.01 0.02 0.02 0.02 0.04 0.08 0.07 0.05 0.04 0.05 0.04 0.04 0.04 0.04
0.02 0.03 0.03 0.04 0.04 0.04 0.03 0.02 0.02 0.02 0.02 0.01 0.03 0.04 0.02 0.02 0.02 0.02 0.01 0.01 0.01 0.02 0.03 0.04 0.04 0.04 0.04 0.02 0.01 0.01 0.01 0.01 0.02 0.03 0.03 0.04 0.06 0.06 0.05 0.05 0.04 0.03 0.05 0.04
0.04 0.04 0.04 0.04 0.04 0.03 0.03 0.03 0.02 0.03 0.02 0.02 0.02 0.04 0.03 0.02 0.02 0.01 0.01 0.01 0.01 0.02 0.03 0.03 0.03 0.02 0.02 0.01 0.01 0.01 0.01 0.02 0.02 0.03 0.04 0.04 0.03 0.04 0.06 0.05 0.04 0.04 0.04 0.04
0.05 0.05 0.05 0.05 0.05 0.05 0.03 0.03 0.02 0.03 0.04 0.06 0.06 0.04 0.01 0.01 0.01 0.01 0.01 0.01 0.01 0.02 0.02 0.03 0.04 0.02 0.01 0.01 0.01 0.01 0.02 0.02 0.03 0.03 0.03 0.04 0.04 0.04 0.05 0.06 0.05 0.05 0.04 0.04
0.03 0.04 0.04 0.04 0.04 0.04 0.04 0.03 0.04 0.05 0.05 0.05 0.05 0.03 0.01 0.01 0.01 0.01 0.01 0.01 0.01 0.02 0.02 0.02 0.03 0.02 0.02 0.01 0.01 0.01 0.01 0.02 0.03 0.03 0.03 0.03 0.04 0.05 0.05 0.05 0.05 0.05 0.05 0.04
0.03 0.02 0.03 0.03 0.02 0.01 0.01 0.02 0.04 0.05 0.04 0.04 0.04 0.02 0.02 0.01 0.01 0.02 0.02 0.01 0.01 0.02 0.02 0.03 0.02 0.03 0.02 0.02 0.02 0.02 0.02 0.02 0.02 0.02 0.02 0.02 0.03 0.04 0.04 0.05 0.05 0.05 0.06 0.06
0.04 0.02 0.02 0.02 0.02 0.02 0.02 0.02 0.02 0.02 0.02 0.03 0.03 0.03 0.02 0.01 0.02 0.03 0.02 0.02 0.02 0.02 0.03 0.04 0.03 0.02 0.02 0.02 0.02 0.02 0.02 0.02 0.02 0.02 0.02 0.03 0.03 0.04 0.05 0.05 0.05 0.05 0.05 0.06
0.04 0.02 0.01 0.01 0.01 0.02 0.03 0.03 0.02 0.02 0.02 0.02 0.02 0.02 0.02 0.01 0.02 0.02 0.03 0.04 0.03 0.02 0.02 0.03 0.04 0.03 0.02 0.02 0.02 0.02 0.02 0.02 0.02 0.02 0.03 0.04 0.04 0.04 0.05 0.05 0.05 0.05 0.06 0.07
MSLP
1007.93 1008.73 1009.31 1009.65 1009.77 1009.73 1009.56 1009.31 1009.00 1008.63 1008.17 1007.59 1006.87 1006.01 1005.05 1004.06 1003.12 1002.34 1001.79 1001.53 1001.56 1001.87 1002.37 1003.00 1003.66 1004.29 1004.83 1005.28 1005.65 1005.98 1006.30 1006.65 1007.01 1007.37 1007.70 1007.94 1008.04 1007.98 1007.75 1007.39 1006.95 1006.52 1006.16 1005.96
1008.24 1008.86 1009.24 1009.41 1009.41 1009.31 1009.18 1009.05 1008.93 1008.78 1008.55 1008.19 1007.63 1006.88 1005.96 1004.93 1003.91 1003.01 1002.33 1001.93 1001.83 1002.01 1002.41 1002.94 1003.51 1004.06 1004.54 1004.95 1005.31 1005.66 1006.04 1006.48 1006.96 1007.45 1007.90 1008.25 1008.44 1008.44 1008.24 1007.90 1007.48 1007.06 1006.73 1006.57
1008.33 1008.74 1008.93 1008.94 1008.85 1008.74 1008.69 1008.72 1008.83 1008.95 1009.00 1008.89 1008.54 1007.92 1007.07 1006.03 1004.95 1003.93 1003.11 1002.54 1002.28 1002.31 1002.56 1002.96 1003.42 1003.87 1004.28 1004.65 1005.00 1005.37 1005.80 1006.32 1006.90 1007.51 1008.08 1008.54 1008.82 1008.89 1008.76 1008.46 1008.09 1007.72 1007.45 1007.34
1008.27 1008.49 1008.51 1008.40 1008.26 1008.19 1008.26 1008.50 1008.86 1009.27 1009.61 1009.76 1009.62 1009.15 1008.37 1007.35 1006.20 1005.08 1004.10 1003.37 1002.93 1002.78 1002.87 1003.13 1003.47 1003.82 1004.16 1004.48 1004.82 1005.20 1005.68 1006.25 1006.91 1007.61 1008.27 1008.81 1009.19 1009.34 1009.29 1009.07 1008.77 1008.48 1008.28 1008.24
1008.22 1008.27 1008.15 1007.96 1007.82 1007.83 1008.05 1008.50 1009.12 1009.80 1010.41 1010.80 1010.85 1010.52 1009.81 1008.78 1007.58 1006.35 1005.23 1004.33 1003.72 1003.40 1003.34 1003.46 1003.69 1003.96 1004.25 1004.54 1004.86 1005.25 1005.74 1006.35 1007.05 1007.79 1008.50 1009.11 1009.55 1009.78 1009.81 1009.69 1009.48 1009.28 1009.17 1009.20
1008.32 1008.22 1008.01 1007.79 1007.68 1007.79 1008.16 1008.80 1009.64 1010.55 1011.37 1011.94 1012.14 1011.91 1011.24 1010.20 1008.95 1007.62 1006.38 1005.34 1004.58 1004.12 1003.94 1003.96 1004.10 1004.32 1004.57 1004.84 1005.15 1005.54 1006.03 1006.63 1007.32 1008.06 1008.79 1009.42 1009.90 1010.19 1010.30 1010.26 1010.16 1010.06 1010.03 1010.14
1008.69 1008.49 1008.22 1008.00 1007.94 1008.13 1008.62 1009.41 1010.39 1011.44 1012.38 1013.05 1013.33 1013.14 1012.48 1011.43 1010.13 1008.73 1007.41 1006.27 1005.42 1004.86 1004.60 1004.55 1004.66 1004.85 1005.09 1005.35 1005.66 1006.03 1006.50 1007.06 1007.71 1008.41 1009.10 1009.71 1010.20 1010.53 1010.70 1010.75 1010.75 1010.74 1010.81 1010.98
1009.35 1009.09 1008.80 1008.60 1008.58 1008.83 1009.39 1010.23 1011.27 1012.34 1013.30 1013.97 1014.24 1014.04 1013.37 1012.30 1010.98 1009.55 1008.19 1007.02 1006.12 1005.54 1005.24 1005.18 1005.28 1005.48 1005.73 1006.00 1006.30 1006.65 1007.07 1007.58 1008.15 1008.77 1009.39 1009.96 1010.43 1010.77 1011.00 1011.12 1011.20 1011.29 1011.44 1011.68
1010.26 1009.99 1009.71 1009.53 1009.54 1009.80 1010.35 1011.15 1012.12 1013.11 1013.98 1014.56 1014.76 1014.50 1013.80 1012.72 1011.41 1010.01 1008.67 1007.52 1006.65 1006.09 1005.81 1005.77 1005.90 1006.12 1006.38 1006.67 1006.96 1007.28 1007.64 1008.07 1008.55 1009.07 1009.61 1010.11 1010.55 1010.90 1011.16 1011.36 1011.52 1011.70 1011.93 1012.23
1011.32 1011.07 1010.83 1010.67 1010.68 1010.90 1011.37 1012.05 1012.85 1013.66 1014.34 1014.76 1014.82 1014.49 1013.76 1012.70 1011.44 1010.12 1008.87 1007.81 1007.02 1006.51 1006.29 1006.29 1006.45 1006.69 1006.97 1007.25 1007.52 1007.80 1008.10 1008.44 1008.82 1009.25 1009.70 1010.15 1010.56 1010.92 1011.22 1011.48 1011.73 1011.99 1012.30 1012.66
1012.38 1012.19 1012.00 1011.87 1011.85 1012.00 1012.33 1012.81 1013.38 1013.94 1014.38 1014.59 1014.51 1014.09 1013.35 1012.35 1011.20 1010.01 1008.90 1007.98 1007.29 1006.88 1006.71 1006.74 1006.91 1007.15 1007.41 1007.67 1007.90 1008.12 1008.35 1008.62 1008.92 1009.27 1009.65 1010.06 1010.46 1010.84 1011.20 1011.54 1011.88 1012.22 1012.60 1013.01
1013.30 1013.21 1013.09 1012.99 1012.94 1013.00 1013.16 1013.42 1013.73 1014.02 1014.20 1014.21 1013.99 1013.52 1012.81 1011.90 1010.89 1009.88 1008.95 1008.18 1007.62 1007.27 1007.14 1007.18 1007.32 1007.51 1007.72 1007.91 1008.08 1008.23 1008.40 1008.59 1008.83 1009.13 1009.48 1009.87 1010.29 1010.73 1011.16 1011.59 1012.01 1012.45 1012.89 1013.35
1014.02 1014.03 1014.00 1013.93 1013.87 1013.84 1013.84 1013.89 1013.95 1013.99 1013.95 1013.79 1013.48 1012.99 1012.34 1011.57 1010.75 1009.93 1009.18 1008.56 1008.10 1007.81 1007.67 1007.66 1007.72 1007.81 1007.92 1008.01 1008.08 1008.16 1008.26 1008.40 1008.60 1008.88 1009.23 1009.64 1010.10 1010.60 1011.12 1011.65 1012.17 1012.68 1013.19 1013.68
1014.51 1014.63 1014.68 1014.67 1014.60 1014.51 1014.39 1014.27 1014.14 1013.98 1013.77 1013.50 1013.14 1012.68 1012.14 1011.54 1010.90 1010.28 1009.71 1009.22 1008.83 1008.54 1008.35 1008.23 1008.16 1008.11 1008.07 1008.02 1007.99 1007.98 1008.01 1008.11 1008.29 1008.57 1008.94 1009.39 1009.92 1010.50 1011.10 1011.72 1012.33 1012.91 1013.47 1013.99
1014.80 1015.02 1015.16 1015.20 1015.15 1015.03 1014.84 1014.60 1014.34 1014.06 1013.76 1013.43 1013.08 1012.70 1012.29 1011.86 1011.41 1010.97 1010.54 1010.14 1009.78 1009.46 1009.17 1008.91 1008.66 1008.43 1008.22 1008.02 1007.87 1007.77 1007.74 1007.81 1007.98 1008.27 1008.67 1009.17 1009.75 1010.39 1011.07 1011.76 1012.44 1013.08 1013.67 1014.20
1014.97 1015.26 1015.47 1015.56 1015.55 1015.42 1015.20 1014.92 1014.60 1014.26 1013.93 1013.61 1013.31 1013.03 1012.76 1012.48 1012.20 1011.90 1011.58 1011.23 1010.86 1010.47 1010.05 1009.63 1009.20 1008.78 1008.40 1008.06 1007.79 1007.60 1007.53 1007.57 1007.74 1008.03 1008.45 1008.97 1009.58 1010.26 1010.98 1011.71 1012.42 1013.09 1013.70 1014.23
1015.11 1015.43 1015.67 1015.80 1015.81 1015.70 1015.50 1015.21 1014.88 1014.55 1014.23 1013.95 1013.72 1013.54 1013.39 1013.25 1013.09 1012.89 1012.64 1012.31 1011.90 1011.42 1010.88 1010.30 1009.71 1009.14 1008.61 1008.15 1007.78 1007.54 1007.42 1007.44 1007.59 1007.87 1008.27 1008.78 1009.38 1010.05 1010.76 1011.48 1012.19 1012.86 1013.46 1013.98
1015.27 1015.57 1015.80 1015.94 1015.97 1015.88 1015.70 1015.44 1015.13 1014.83 1014.55 1014.32 1014.16 1014.05 1013.99 1013.93 1013.85 1013.71 1013.48 1013.14 1012.69 1012.14 1011.50 1010.81 1010.11 1009.43 1008.81 1008.28 1007.86 1007.57 1007.42 1007.41 1007.53 1007.78 1008.13 1008.58 1009.11 1009.71 1010.35 1011.02 1011.68 1012.31 1012.90 1013.41
1015.48 1015.71 1015.89 1016.01 1016.03 1015.95 1015.78 1015.55 1015.27 1015.00 1014.75 1014.56 1014.44 1014.37 1014.34 1014.32 1014.27 1014.14 1013.91 1013.56 1013.08 1012.49 1011.80 1011.06 1010.31 1009.60 1008.95 1008.41 1007.98 1007.68 1007.52 1007.48 1007.55 1007.72 1007.98 1008.32 1008.73 1009.21 1009.74 1010.30 1010.89 1011.47 1012.02 1012.53
1015.72 1015.85 1015.95 1016.00 1015.99 1015.90 1015.73 1015.51 1015.25 1014.99 1014.76 1014.57 1014.44 1014.37 1014.33 1014.30 1014.22 1014.08 1013.84 1013.47 1012.99 1012.39 1011.72 1011.00 1010.28 1009.60 1008.99 1008.49 1008.10 1007.82 1007.65 1007.58 1007.58 1007.66 1007.79 1007.99 1008.24 1008.56 1008.94 1009.38 1009.86 1010.37 1010.90 1011.41
1015.95 1015.95 1015.94 1015.92 1015.85 1015.72 1015.54 1015.31 1015.04 1014.77 1014.52 1014.30 1014.13 1014.01 1013.92 1013.83 1013.71 1013.53 1013.26 1012.90 1012.44 1011.88 1011.27 1010.63 1010.00 1009.42 1008.92 1008.50 1008.17 1007.93 1007.77 1007.66 1007.59 1007.55 1007.55 1007.58 1007.66 1007.80 1008.02 1008.32 1008.70 1009.14 1009.64 1010.16
1016.09 1015.97 1015.86 1015.74 1015.60 1015.43 1015.21 1014.95 1014.66 1014.35 1014.06 1013.78 1013.54 1013.33 1013.15 1012.99 1012.80 1012.58 1012.30 1011.95 1011.54 1011.06 1010.55 1010.04 1009.55 1009.11 1008.73 1008.41 1008.17 1007.97 1007.81 1007.67 1007.52 1007.38 1007.23 1007.11 1007.02 1007.00 1007.06 1007.24 1007.52 1007.90 1008.38 1008.92
1016.10 1015.87 1015.66 1015.46 1015.26 1015.03 1014.78 1014.48 1014.15 1013.79 1013.43 1013.08 1012.75 1012.45 1012.17 1011.92 1011.67 1011.41 1011.12 1010.81 1010.46 1010.09 1009.71 1009.34 1009.00 1008.70 1008.46 1008.25 1008.08 1007.93 1007.77 1007.59 1007.38 1007.13 1006.87 1006.61 1006.38 1006.22 1006.16 1006.23 1006.43 1006.77 1007.23 1007.79
1015.92 1015.62 1015.34 1015.09 1014.84 1014.57 1014.28 1013.94 1013.57 1013.16 1012.73 1012.30 1011.88 1011.48 1011.12 1010.79 1010.49 1010.20 1009.93 1009.66 1009.39 1009.13 1008.88 1008.66 1008.46 1008.30 1008.17 1008.05 1007.94 1007.81 1007.64 1007.43 1007.15 1006.83 1006.48 1006.12 1005.79 1005.54 1005.40 1005.39 1005.54 1005.84 1006.28 1006.84
1015.57 1015.23 1014.93 1014.64 1014.36 1014.07 1013.75 1013.39 1012.98 1012.52 1012.03 1011.54 1011.04 1010.57 1010.15 1009.76 1009.43 1009.14 1008.90 1008.69 1008.50 1008.35 1008.22 1008.12 1008.04 1007.97 1007.92 1007.86 1007.77 1007.64 1007.46 1007.20 1006.88 1006.51 1006.10 1005.69 1005.31 1005.01 1004.83 1004.78 1004.89 1005.16 1005.56 1006.09
1015.07 1014.74 1014.43 1014.15 1013.87 1013.57 1013.24 1012.86 1012.42 1011.93 1011.41 1010.86 1010.32 1009.81 1009.35 1008.95 1008.62 1008.36 1008.16 1008.02 1007.92 1007.86 1007.82 1007.81 1007.81 1007.80 1007.78 1007.73 1007.63 1007.49 1007.27 1006.98 1006.63 1006.22 1005.79 1005.37 1004.99 1004.68 1004.49 1004.42 1004.50 1004.73 1005.08 1005.54
Thickness
5776 5758 5748 5756 5763 5762 5762 5758 5755 5768 5788 5779 5772 5770 5778 5787 5786 5784 5782 5780 5778 5777 5780 5781 5780 5777 5774 5770 5767 5763 5758 5756 5753 5751 5749 5747 5745 5745 5745 5745 5744 5742 5741 5739
5753 5748 5765 5772 5772 5767 5761 5753 5755 5767 5782 5776 5766 5765 5774 5780 5781 5782 5778 5775 5774 5771 5770 5771 5772 5771 5768 5765 5762 5759 5755 5752 5751 5749 5747 5746 5744 5743 5742 5741 5740 5739 5737 5736
5744 5759 5775 5770 5765 5761 5759 5754 5757 5758 5769 5770 5762 5750 5758 5770 5777 5779 5778 5776 5773 5770 5764 5764 5765 5764 5763 5760 5758 5756 5752 5750 5748 5747 5745 5743 5740 5738 5735 5735 5735 5735 5735 5733
5752 5768 5771 5764 5762 5763 5749 5770 5769 5763 5749 5737 5748 5721 5741 5753 5761 5767 5769 5769 5768 5768 5765 5762 5760 5758 5757 5755 5754 5752 5748 5746 5745 5743 5740 5737 5733 5730 5730 5731 5731 5731 5731 5730
5751 5766 5764 5759 5766 5771 5762 5775 5770 5763 5746 5733 5736 5722 5727 5743 5743 5752 5760 5764 5764 5765 5762 5758 5756 5754 5753 5751 5749 5746 5743 5740 5739 5738 5736 5733 5730 5727 5727 5727 5726 5726 5725 5725
5758 5773 5771 5769 5778 5779 5774 5765 5756 5744 5728 5711 5725 5719 5716 5728 5734 5743 5751 5755 5755 5756 5754 5751 5749 5748 5746 5745 5742 5739 5736 5734 5733 5732 5731 5729 5726 5723 5722 5721 5720 5720 5719 5720
5743 5758 5770 5775 5763 5767 5760 5730 5707 5704 5695 5701 5724 5716 5713 5734 5743 5744 5744 5746 5747 5748 5745 5742 5739 5738 5737 5736 5734 5733 5730 5728 5728 5727 5726 5725 5723 5720 5718 5717 5716 5715 5714 5714
5719 5725 5754 5765 5757 5748 5746 5730 5700 5690 5688 5698 5714 5706 5716 5738 5746 5746 5745 5743 5742 5739 5737 5733 5732 5731 5730 5728 5726 5725 5723 5721 5721 5721 5720 5719 5718 5717 5715 5714 5713 5712 5711 5711
5717 5723 5756 5765 5767 5757 5742 5731 5729 5707 5703 5692 5696 5705 5718 5732 5734 5736 5737 5736 5733 5732 5730 5727 5725 5724 5722 5720 5719 5718 5716 5715 5715 5715 5714 5713 5712 5711 5710 5709 5709 5708 5707 5708
5729 5720 5741 5756 5760 5756 5749 5739 5714 5699 5684 5678 5688 5693 5696 5712 5719 5725 5726 5726 5727 5725 5722 5720 5717 5716 5715 5714 5713 5711 5710 5708 5708 5708 5708 5708 5707 5706 5705 5704 5703 5702 5702 5702
5732 5715 5722 5735 5732 5730 5734 5727 5712 5695 5691 5676 5670 5681 5714 5714 5718 5719 5721 5721 5720 5717 5715 5712 5711 5710 5708 5707 5706 5704 5703 5702 5701 5701 5701 5700 5700 5700 5699 5698 5698 5698 5697 5697
5729 5709 5702 5718 5736 5744 5735 5725 5709 5689 5685 5681 5672 5680 5722 5718 5718 5717 5717 5717 5715 5713 5710 5707 5706 5703 5701 5700 5699 5697 5696 5695 5694 5694 5694 5693 5693 5692 5692 5692 5692 5692 5692 5693
5725 5702 5687 5695 5708 5723 5722 5722 5714 5698 5684 5676 5670 5681 5714 5713 5712 5713 5711 5709 5708 5705 5702 5698 5696 5695 5694 5693 5692 5691 5690 5688 5687 5687 5686 5685 5685 5685 5685 5686 5687 5687 5687 5687
5729 5700 5689 5684 5691 5706 5710 5714 5711 5697 5677 5676 5680 5684 5697 5702 5704 5704 5703 5702 5700 5698 5695 5692 5689 5688 5688 5687 5686 5684 5683 5682 5681 5679 5678 5677 5677 5678 5679 5680 5681 5682 5683 5683
5716 5697 5702 5704 5712 5712 5710 5710 5709 5701 5692 5682 5685 5686 5691 5696 5699 5699 5697 5695 5693 5691 5688 5686 5684 5682 5680 5678 5676 5676 5675 5675 5674 5673 5671 5671 5672 5673 5674 5675 5676 5677 5677 5679
5703 5695 5697 5697 5707 5706 5701 5705 5705 5701 5698 5692 5688 5685 5696 5695 5694 5691 5690 5688 5685 5683 5681 5680 5678 5676 5674 5672 5671 5669 5668 5667 5667 5666 5665 5666 5667 5668 5669 5669 5670 5671 5672 5673
5690 5687 5679 5675 5691 5692 5679 5692 5694 5692 5694 5690 5679 5682 5688 5684 5685 5684 5683 5683 5680 5678 5677 5675 5673 5671 5669 5667 5666 5664 5663 5662 5661 5660 5660 5661 5661 5662 5663 5665 5664 5665 5666 5668
5685 5677 5666 5665 5671 5658 5675 5696 5696 5688 5686 5688 5684 5683 5683 5680 5680 5680 5680 5677 5675 5673 5671 5670 5669 5667 5665 5663 5662 5660 5659 5657 5655 5654 5655 5655 5656 5657 5658 5658 5659 5660 5662 5663
5686 5674 5660 5652 5650 5656 5675 5686 5685 5677 5671 5680 5678 5676 5675 5674 5671 5669 5673 5673 5671 5670 5668 5666 5665 5663 5660 5658 5657 5654 5653 5652 5651 5651 5651 5651 5652 5652 5653 5653 5654 5656 5657 5658
5677 5670 5656 5648 5644 5642 5661 5682 5687 5676 5657 5673 5672 5668 5667 5665 5651 5655 5667 5666 5665 5664 5661 5659 5658 5656 5653 5651 5650 5649 5647 5646 5645 5646 5646 5647 5648 5648 5648 5649 5650 5652 5653 5654
5656 5652 5647 5642 5638 5646 5666 5678 5678 5651 5649 5665 5666 5664 5662 5656 5653 5657 5660 5658 5658 5657 5655 5653 5651 5649 5647 5646 5645 5642 5640 5639 5640 5641 5642 5642 5643 5643 5645 5646 5647 5648 5648 5649
5645 5640 5638 5633 5630 5636 5664 5667 5656 5651 5658 5660 5659 5659 5656 5654 5653 5652 5652 5651 5650 5648 5647 5646 5644 5642 5641 5640 5638 5635 5634 5634 5635 5635 5636 5636 5637 5639 5641 5641 5642 5643 5643 5643
5644 5643 5638 5636 5636 5649 5658 5658 5658 5657 5654 5655 5654 5653 5651 5648 5646 5645 5644 5643 5643 5642 5640 5639 5637 5636 5635 5634 5633 5630 5629 5629 5628 5628 5629 5630 5632 5634 5635 5635 5636 5636 5637 5638
5643 5646 5638 5636 5642 5648 5650 5652 5653 5654 5652 5652 5650 5648 5646 5642 5640 5639 5637 5635 5634 5634 5634 5632 5631 5629 5628 5629 5628 5627 5626 5624 5622 5622 5622 5624 5626 5627 5629 5630 5631 5631 5632 5633
5635 5636 5629 5629 5635 5638 5641 5643 5645 5647 5647 5646 5645 5643 5640 5637 5635 5633 5630 5629 5628 5627 5627 5626 5624 5623 5623 5623 5622 5622 5621 5618 5616 5616 5617 5618 5620 5621 5622 5623 5624 5626 5628 5630
5627 5624 5620 5619 5628 5627 5631 5638 5640 5638 5638 5638 5637 5635 5634 5632 5629 5627 5624 5622 5621 5620 5620 5619 5618 5618 5618 5618 5617 5617 5616 5614 5612 5611 5611 5612 5614 5615 5616 5616 5618 5621 5623 5625